Location: Arboyeti
(42.1122°N, 44.6017°E)
Time: 09:42:04
(UTC+00:00)

ATLAS 5 CENTAUR R/B - Pass Details

Date: 19 April 2021
Orbit: 516 x 1141 km, 63.3° (Epoch: 02 May)

Event Time Altitude Azimuth Distance (km) Brightness Sun altitude
Rises 22:36:06 0° 327° (NNW) 3,248 5.6 -32.1°
Reaches altitude 10° 22:38:24 10° 332° (NNW) 2,409 4.9 -31.9°
Maximum altitude 22:43:58 57° 51° (NE) 1,079 2.9 -31.4°
Enters shadow 22:47:28 27° 119° (ESE) 1,792 3.8 -31.0°
